Dewpoint
75 75 73 74 74 74 71 68 57 62 60 54 55 58 56 56 59 58 58 59 59 60 61 61 62 61 63 60 59 62 63 57 61 53 52 65 70 70 72 72 72 73 72 73 74 74 74 75 76 76 76 76 77 77 76 76 76 77 77 77 78 78 78 78 78 78 78 78 78 77 77 77 77 77 76 76 76 76 76 76 76 76 76 75 75 75 75 75 75 75 75 75 75 75 75 74 75
74 74 76 74 73 72 66 69 60 59 58 55 56 58 57 59 58 57 55 58 58 58 60 59 60 61 62 62 61 59 60 65 65 65 67 69 70 71 72 72 72 72 73 73 73 74 74 75 76 76 76 76 76 77 77 76 76 77 77 77 78 78 78 78 77 77 77 78 78 78 77 77 77 77 77 76 76 77 77 76 76 76 76 75 75 76 76 75 75 75 75 74 75 75 74 75 75
73 74 74 75 74 71 68 67 55 55 53 51 53 56 57 57 58 56 57 58 58 58 59 60 60 60 60 60 58 58 59 66 66 67 67 70 69 71 72 72 73 73 73 73 73 73 74 75 76 76 76 76 77 77 77 76 76 77 77 77 77 78 78 77 77 77 77 77 77 77 77 77 77 77 77 77 77 77 77 76 77 77 76 76 76 75 75 75 75 75 75 75 75 75 75 75 75
73 73 71 72 67 70 63 61 56 55 51 52 52 54 56 55 56 58 62 56 58 59 59 59 58 61 59 59 60 62 62 63 66 67 67 68 69 71 72 72 73 73 73 73 73 74 74 75 76 76 76 76 77 77 77 76 76 76 77 77 77 77 77 77 77 77 77 77 77 77 77 77 77 77 77 77 77 76 76 76 76 76 76 76 75 75 75 75 75 75 75 75 75 75 75 76 75
72 73 72 71 66 61 61 59 57 56 53 54 51 53 54 55 56 57 59 57 58 58 58 58 58 60 61 60 60 59 62 65 66 67 67 69 70 71 72 73 73 73 73 73 74 74 74 75 76 76 76 76 76 76 76 76 76 76 77 77 77 77 77 77 77 77 77 77 77 77 77 77 77 77 76 76 76 77 77 76 76 76 75 75 75 75 75 75 75 75 75 75 75 75 75 75 75
71 72 76 71 63 66 62 56 55 55 54 61 52 48 52 53 55 57 56 55 55 56 58 57 58 58 58 60 61 62 65 63 66 67 68 69 70 72 72 73 72 72 73 73 74 74 74 76 76 75 76 76 76 76 76 76 76 76 77 77 77 77 77 77 76 77 77 77 77 78 77 77 77 76 76 76 76 76 76 76 76 76 76 75 75 75 75 75 75 75 75 75 75 74 74 74 75
71 70 72 68 66 66 57 56 54 57 55 57 54 54 52 53 53 54 55 56 57 57 58 57 58 58 58 60 62 63 65 66 66 67 69 69 71 72 72 72 72 72 73 73 73 74 74 76 76 76 76 77 77 77 77 76 76 76 77 77 77 76 77 77 76 76 76 77 77 77 77 77 76 76 76 76 76 76 76 76 76 75 75 76 75 75 75 75 75 74 74 74 74 74 74 74 74
72 68 67 62 59 59 56 57 55 58 54 55 54 53 52 53 53 55 55 55 55 56 58 58 58 58 58 61 60 63 65 66 67 68 70 70 71 71 71 71 71 72 72 73 73 74 76 76 76 76 77 77 76 77 76 76 76 76 76 76 76 77 77 77 76 76 76 77 77 77 77 76 76 76 76 76 76 76 75 76 76 75 75 75 75 75 75 75 74 74 74 74 74 74 74 74 74
70 69 70 62 57 59 57 56 55 56 55 55 52 54 56 53 53 55 55 57 57 57 57 58 59 59 61 62 62 64 67 68 69 70 70 70 70 70 70 71 71 72 72 73 73 75 75 76 76 76 76 76 76 77 77 76 76 76 76 76 77 76 76 76 76 76 76 76 77 76 76 76 76 76 76 76 75 75 76 76 76 75 75 75 75 75 75 75 74 73 73 73 74 74 74 74 74
68 67 61 60 58 54 54 53 53 53 55 55 51 49 52 52 52 54 57 57 57 57 57 59 61 61 62 62 63 65 67 69 69 69 70 70 70 70 70 70 71 71 72 72 73 74 75 77 76 76 76 76 76 76 76 76 76 76 76 76 76 76 76 76 76 76 76 76 76 76 76 76 76 77 76 76 75 75 76 76 76 75 75 75 75 75 74 74 74 74 73 73 74 74 74 74 74
64 67 65 59 55 53 52 50 51 51 51 54 53 48 52 52 53 55 57 58 58 58 59 61 61 61 62 62 64 67 68 69 69 69 70 70 69 69 70 71 71 72 72 72 73 74 75 75 76 76 76 76 76 76 76 76 76 76 76 76 76 76 76 76 76 76 76 76 75 76 76 76 76 77 76 76 75 75 75 75 75 75 75 75 75 75 75 74 74 73 73 74 74 74 74 74 75
61 63 63 57 55 52 51 50 49 48 46 51 49 49 50 52 55 56 58 58 58 58 59 60 59 62 62 63 65 67 68 68 68 69 69 69 68 69 70 70 71 72 72 73 74 74 75 75 75 76 76 75 76 76 76 76 76 76 76 76 76 76 76 76 76 76 76 76 75 75 76 76 77 76 76 75 75 75 75 75 75 75 76 75 76 75 75 74 74 74 74 74 74 74 74 74 74
63 61 59 53 52 51 51 49 49 52 44 46 44 48 51 54 56 57 58 58 58 58 58 60 62 62 61 62 65 67 67 68 68 68 68 68 68 69 70 70 71 72 73 74 74 74 74 75 74 75 75 76 76 76 76 76 76 76 76 76 76 76 76 76 76 76 76 76 75 75 75 76 77 76 76 75 75 75 75 75 75 75 76 75 76 76 75 74 74 74 74 74 75 75 75 75 75
62 62 56 53 54 52 51 50 48 43 39 43 45 47 49 54 56 57 58 57 58 57 59 61 61 62 61 63 65 65 66 68 68 67 67 67 68 69 69 70 71 72 73 73 74 74 74 75 74 74 75 75 75 76 76 76 76 76 76 76 76 76 77 76 76 76 76 75 75 75 76 76 76 76 77 76 76 76 75 76 76 76 76 76 76 76 75 74 75 74 74 75 75 75 75 75 76
62 62 56 55 52 51 50 45 41 36 40 41 45 46 49 55 55 57 57 56 57 60 60 61 61 61 60 61 61 64 66 67 67 67 67 67 68 69 70 71 72 72 73 73 74 74 74 75 74 75 75 75 75 75 75 75 76 76 76 77 77 77 77 76 76 76 76 75 75 76 76 76 76 76 76 76 76 76 76 76 75 76 74 75 76 76 75 74 74 75 73 74 75 75 75 75 75
62 60 57 54 50 49 46 45 44 37 34 39 43 45 49 52 54 54 57 58 58 60 59 59 61 58 61 61 62 64 66 67 67 67 67 67 69 70 70 71 71 72 72 73 74 74 74 75 75 75 75 75 75 75 75 75 76 76 76 76 77 77 77 77 76 76 76 76 75 76 76 76 76 75 76 75 75 75 75 76 75 75 75 75 75 75 74 74 75 75 74 74 74 75 75 74 76
64 61 51 53 47 48 45 44 45 39 38 36 42 43 48 51 54 56 59 59 57 57 58 59 59 62 61 61 64 66 66 67 68 67 67 68 69 69 69 69 70 71 72 73 74 74 74 75 75 75 75 75 75 75 75 75 75 76 76 76 76 77 76 76 76 76 76 75 75 76 76 76 76 76 75 75 75 74 75 75 76 75 75 75 75 74 75 74 73 73 73 74 74 73 74 75 76
62 55 53 50 49 49 50 45 45 46 44 35 41 47 51 52 54 55 58 58 57 57 57 58 60 61 62 63 65 66 66 66 66 66 66 67 68 68 68 68 70 70 72 73 73 74 74 75 75 75 75 75 75 76 76 76 75 76 75 75 75 76 76 76 76 75 76 75 76 75 75 77 76 75 75 76 77 76 75 75 75 75 75 75 75 75 74 74 74 73 73 72 73 74 75 74 76
55 56 52 46 50 49 48 46 46 45 44 40 38 51 52 52 53 54 54 56 56 55 56 57 58 60 62 63 65 66 66 66 66 66 66 67 67 68 68 69 69 69 71 72 72 73 73 75 75 75 75 75 75 76 76 76 75 76 75 75 76 76 77 76 76 77 75 75 75 75 76 76 75 76 76 77 77 77 76 75 76 75 76 75 75 75 75 75 73 74 74 73 73 74 75 74 75
56 54 52 51 50 48 48 46 45 46 46 46 39 50 51 52 53 53 52 53 54 54 56 57 58 59 61 63 64 65 66 66 66 66 66 66 67 67 68 68 68 69 70 71 71 72 73 74 74 75 75 75 75 76 76 76 76 76 75 75 75 75 76 76 76 76 76 75 75 75 75 75 76 76 79 76 76 76 76 77 76 76 76 76 76 76 76 76 75 74 74 74 76 78 73 74 74
57 53 50 49 49 49 49 48 47 48 47 47 42 49 50 51 51 51 52 51 52 55 57 57 57 59 61 62 63 65 65 65 65 66 66 66 66 67 68 68 68 69 70 69 70 71 73 73 74 74 75 74 75 75 75 75 75 75 75 75 75 75 75 76 75 76 75 75 75 75 75 75 76 76 76 76 75 75 75 75 76 76 76 75 77 75 76 75 77 75 74 76 74 74 75 73 72
53 53 53 51 49 49 49 47 45 44 47 47 44 44 47 49 50 51 52 51 51 55 57 58 58 59 60 62 63 64 64 64 65 65 65 65 66 66 67 68 68 68 69 68 69 71 72 72 73 74 74 74 74 75 75 76 76 75 75 75 75 75 75 75 75 76 75 75 75 75 75 76 76 75 75 75 75 74 74 75 75 76 75 75 77 74 75 74 73 74 74 74 74 74 73 72 72
50 51 52 51 50 47 47 45 44 45 46 46 43 39 41 39 44 51 51 51 52 57 58 58 58 59 60 62 63 63 63 64 64 65 65 65 66 66 66 67 67 67 68 68 69 71 72 72 73 74 73 74 74 74 75 76 75 75 75 75 75 75 75 75 75 75 75 75 74 75 75 75 75 74 74 74 74 74 75 75 75 75 74 74 75 73 73 74 74 74 73 73 73 72 72 72 72
51 48 50 50 50 48 47 44 45 45 46 45 42 33 34 36 43 49 49 49 54 58 58 58 58 59 60 61 62 63 63 64 64 65 65 65 65 66 66 66 67 67 67 68 70 71 72 71 73 73 73 73 73 74 74 75 75 74 75 76 75 75 75 75 75 75 75 75 75 75 76 75 74 74 74 74 74 74 74 75 75 74 74 74 75 72 73 73 72 72 73 74 73 72 71 71 71
50 48 49 49 49 49 48 45 44 45 45 45 32 31 31 34 40 43 44 53 57 58 58 58 58 59 59 61 62 63 63 63 64 64 65 66 66 66 66 67 67 67 67 69 70 71 71 72 73 73 73 73 73 74 74 74 74 74 74 75 75 76 75 75 75 75 74 75 75 75 76 74 74 73 72 74 74 74 74 75 74 73 74 74 74 72 72 72 72 72 74 72 72 73 72 71 71
51 49 48 47 48 48 48 46 43 44 44 44 31 36 36 28 37 39 52 56 58 58 58 58 58 58 59 61 62 63 63 63 64 64 65 66 66 66 66 67 67 67 68 69 70 70 71 72 72 72 72 73 73 73 74 74 74 74 74 74 74 76 75 74 75 74 74 74 75 75 75 74 73 73 72 74 74 74 74 74 74 72 73 73 73 71 73 73 72 73 72 72 71 72 72 72 74
51 50 49 46 46 46 47 46 43 44 44 44 39 40 39 37 44 48 55 57 58 58 58 58 58 58 58 59 61 62 62 63 63 64 65 66 66 66 66 67 67 68 69 69 70 70 71 72 72 72 73 74 73 73 73 73 73 74 74 74 74 74 74 74 74 73 73 74 75 75 75 74 73 72 72 74 74 73 73 73 73 73 72 74 72 72 73 74 73 72 72 72 72 71 71 71 72
31 34 43 47 45 45 45 46 44 43 42 43 41 40 37 37 46 50 55 57 58 57 57 57 57 58 58 59 60 62 62 62 63 64 64 65 66 66 66 67 67 68 69 69 70 70 71 71 72 72 73 73 73 72 74 73 72 73 74 74 74 74 74 73 73 73 74 74 75 75 75 74 74 71 72 74 73 73 73 72 72 73 73 74 73 73 75 76 74 73 74 72 72 71 71 71 71
26 25 24 27 41 43 45 44 44 42 41 42 42 38 36 40 48 53 56 57 57 57 57 57 57 58 58 59 60 61 61 61 62 63 63 65 66 66 66 67 67 68 69 69 70 70 70 71 71 72 73 73 73 72 73 73 72 73 73 73 73 74 74 73 73 72 72 74 75 74 75 74 74 71 73 74 75 73 73 74 73 74 74 74 74 74 74 75 74 74 73 73 72 72 71 71 72
24 26 25 36 41 42 43 44 42 40 41 42 41 37 38 39 51 54 56 56 57 57 56 57 57 57 58 59 60 61 61 61 61 62 63 64 65 66 66 67 68 68 69 69 69 69 70 71 71 72 72 73 73 72 72 73 72 73 73 73 74 73 73 73 73 72 72 73 74 74 74 75 74 72 74 74 74 73 74 74 74 73 74 74 74 74 74 73 71 70 71 71 74 71 70 70 70
19 23 29 28 39 40 42 42 40 38 41 42 42 40 40 40 52 54 55 56 56 56 56 56 57 57 57 58 59 60 60 61 61 62 62 63 65 65 66 66 67 68 69 69 69 69 71 71 71 72 73 73 73 71 72 72 73 72 73 72 72 73 72 72 72 72 72 71 73 74 75 75 74 73 74 74 74 73 74 74 73 73 74 74 74 74 75 73 71 71 72 69 70 71 70 71 69
20 17 18 22 23 25 29 40 39 37 41 42 42 43 40 40 51 53 55 56 56 55 56 56 56 56 57 58 59 59 60 60 60 61 61 61 63 64 65 66 66 67 68 69 69 69 70 70 71 71 72 72 72 71 72 72 72 72 72 74 72 73 72 72 72 72 72 72 74 74 75 75 75 74 75 75 74 74 74 73 74 73 74 74 74 75 73 72 71 71 72 70 68 69 70 68 67
22 18 26 20 22 22 22 32 39 38 40 41 40 41 44 40 50 52 54 55 55 55 55 55 56 56 56 57 58 59 59 59 59 59 60 60 62 63 64 65 66 67 68 68 69 69 69 70 72 71 72 72 72 71 71 71 72 72 72 72 72 73 72 72 72 73 73 72 74 74 75 75 76 76 76 75 74 74 73 73 73 73 74 74 74 74 73 73 71 71 71 72 69 68 69 68 65
19 22 22 21 19 23 23 29 36 38 39 39 40 41 42 41 48 50 54 54 54 54 54 55 55 55 56 56 57 58 57 58 58 58 59 60 61 63 63 67 65 66 67 68 68 68 69 70 70 71 71 72 72 71 71 71 71 72 72 72 74 73 72 72 72 73 74 73 75 74 76 76 76 77 76 76 75 74 74 73 74 74 74 74 73 73 72 72 71 71 69 70 71 68 67 65 63
16 21 22 20 21 21 22 28 32 37 38 37 40 41 41 41 45 48 52 54 54 54 54 54 54 54 55 56 56 57 57 57 57 57 58 60 61 63 63 65 65 66 66 67 68 68 69 69 70 71 71 71 71 71 71 71 71 72 71 72 72 73 72 72 72 73 74 74 75 75 76 76 76 76 76 76 75 75 74 74 74 74 74 73 73 72 71 71 72 70 69 69 70 67 65 65 63
17 18 20 20 19 20 20 21 29 37 37 36 40 40 41 40 37 45 50 52 52 53 53 54 54 54 54 55 56 56 56 56 57 57 57 59 61 63 63 65 65 66 67 67 68 67 68 69 69 70 71 71 71 70 72 70 71 71 70 71 72 72 72 72 72 72 73 74 75 75 76 76 76 76 76 76 75 75 74 74 74 74 74 73 72 71 70 70 70 69 70 67 63 65 67 65 65
18 19 19 19 19 19 20 21 28 37 36 36 39 40 40 40 33 42 48 50 51 51 51 53 53 53 53 54 55 55 56 55 57 57 58 59 60 62 63 65 65 66 67 67 67 67 67 68 69 70 71 70 70 70 71 70 70 70 70 70 70 71 71 72 72 72 72 73 74 76 76 76 76 76 76 76 75 76 74 73 74 74 73 72 72 71 71 71 70 70 68 68 63 63 64 66 66
17 18 18 19 19 19 20 22 32 34 35 35 40 40 41 40 35 38 46 48 48 50 50 51 52 53 52 54 54 55 55 55 56 57 58 59 59 62 63 65 66 65 66 67 66 66 66 68 68 69 70 70 70 69 71 71 70 70 69 70 70 71 71 72 72 72 72 73 74 75 76 76 76 76 76 75 75 76 74 73 74 74 73 72 71 72 71 73 72 69 66 63 67 64 64 67 66
17 17 18 18 19 20 22 23 23 30 32 34 39 39 40 41 38 39 43 46 47 48 48 49 52 52 52 53 54 55 55 55 55 56 58 59 58 61 63 64 66 65 66 66 66 67 67 67 68 69 70 70 70 69 70 71 71 70 69 70 70 71 72 72 72 74 74 73 75 75 76 76 76 76 76 75 75 75 75 74 74 73 72 72 71 71 71 71 68 67 65 64 65 66 66 68 65
16 16 17 18 19 22 21 22 25 29 31 33 38 37 39 41 41 40 40 43 44 47 47 47 51 52 52 53 54 54 55 55 55 56 57 59 59 60 62 63 66 66 66 66 67 66 67 68 68 69 70 70 70 69 71 71 72 71 70 70 70 71 71 74 73 74 75 75 75 76 76 76 76 75 75 75 75 75 75 74 73 72 71 72 71 70 70 70 67 66 65 66 65 63 63 63 68
18 17 16 16 18 19 21 21 23 31 31 35 36 41 42 42 40 40 41 41 40 44 46 46 49 51 52 52 54 55 55 56 55 55 56 59 59 60 61 63 65 66 67 66 67 67 67 68 68 69 69 70 70 70 70 71 72 72 72 72 72 72 72 73 72 73 74 75 75 76 76 76 76 75 75 75 75 75 75 74 73 72 71 71 71 70 70 69 67 66 66 68 65 63 63 65 67
17 18 17 16 17 20 21 21 22 30 29 34 34 39 37 41 40 40 41 43 41 41 43 44 46 50 51 51 53 55 56 56 56 56 56 58 59 60 61 62 64 65 66 66 66 67 67 67 68 69 70 70 70 70 70 71 71 71 71 70 70 70 70 71 70 71 73 74 75 76 76 77 76 75 75 75 75 75 74 74 73 72 71 72 72 70 69 68 67 66 67 66 65 65 65 63 63
15 16 17 17 17 19 21 21 23 35 29 32 34 32 34 41 40 40 41 42 42 43 41 42 45 48 49 49 52 54 55 56 57 56 56 57 59 60 61 62 62 64 66 67 67 67 67 67 69 69 70 71 71 71 71 71 71 71 71 70 70 69 70 70 71 71 73 74 75 75 76 76 76 76 75 75 75 75 74 74 73 73 72 72 73 70 68 68 67 66 68 66 66 69 65 63 64
13 18 19 17 17 18 19 20 21 32 34 31 32 33 36 37 39 41 41 42 42 44 42 41 43 46 48 48 50 53 55 56 57 57 57 57 59 60 61 62 62 63 65 67 67 68 68 68 68 69 70 72 71 72 71 71 71 71 71 70 70 70 70 71 71 72 73 74 74 75 75 76 76 76 75 75 74 74 74 73 73 73 72 71 72 70 68 68 68 67 69 68 67 67 65 63 62
13 15 20 20 19 19 20 21 21 22 22 21 29 36 35 37 38 41 42 41 42 43 44 43 43 44 47 48 48 52 55 56 57 57 57 58 59 60 61 62 62 63 64 66 67 68 68 68 68 69 70 72 72 72 72 72 72 71 71 71 71 71 71 72 72 72 73 74 73 74 74 75 76 76 75 74 74 73 74 74 73 72 71 71 72 70 67 68 67 68 68 67 67 67 66 65 64
11 12 15 16 20 21 21 21 21 23 23 22 26 29 29 32 41 40 43 41 41 41 43 45 45 44 45 47 47 49 53 56 57 57 58 58 59 60 61 61 62 63 64 66 67 68 68 68 69 69 69 70 72 72 72 72 72 72 71 71 71 71 71 72 73 72 72 73 73 73 74 74 75 75 75 74 73 73 73 74 73 72 71 70 71 67 67 67 68 68 67 66 67 67 66 65 63
10 9 11 12 13 15 22 25 24 25 21 21 25 30 30 28 37 40 41 41 41 42 43 44 47 46 45 46 47 48 51 55 56 57 58 58 59 59 61 61 62 63 64 65 67 68 69 69 69 69 70 70 71 72 72 72 72 72 71 71 71 71 71 72 72 72 72 73 72 73 73 73 74 75 74 74 73 72 73 74 73 71 70 71 71 67 67 67 67 67 67 67 67 66 65 65 66
9 6 7 10 15 18 23 27 31 21 19 26 24 29 30 27 33 40 41 42 42 42 42 43 44 47 47 47 47 47 49 53 55 56 58 58 59 59 61 61 62 63 64 65 66 68 69 69 69 69 70 71 71 72 72 72 72 72 71 71 71 72 72 72 72 72 72 72 72 72 73 73 73 74 74 74 73 73 73 73 72 71 70 69 69 67 67 68 67 67 67 67 66 66 65 66 65
7 6 12 8 14 17 12 16 15 19 18 27 27 28 30 29 35 38 42 42 42 42 42 43 43 45 48 47 47 48 48 50 54 56 57 58 59 59 60 62 63 63 64 65 66 67 69 70 70 70 70 71 71 71 72 72 72 71 71 71 71 72 72 72 72 72 72 72 72 72 72 72 72 73 73 73 73 72 73 72 71 70 69 68 68 67 67 68 67 66 67 67 66 65 64 63 62
5 5 13 10 9 10 14 15 21 22 27 29 23 30 28 35 32 39 40 42 42 42 43 43 43 44 47 48 48 48 49 49 52 55 57 59 59 59 60 62 63 63 64 65 65 67 68 70 70 70 70 71 71 71 71 71 72 72 72 71 71 72 72 72 72 72 72 72 72 72 72 71 72 72 72 72 73 72 72 72 71 70 69 68 67 67 67 67 67 66 67 67 65 65 64 64 63
5 4 6 11 11 14 13 16 14 16 21 24 22 22 26 23 27 37 42 43 43 43 43 43 44 44 46 48 48 49 49 49 51 53 56 58 60 60 60 61 63 64 64 64 65 67 68 69 70 70 70 71 72 72 71 71 71 72 72 72 72 72 72 72 72 72 72 72 72 72 72 72 72 72 72 72 73 72 72 71 70 70 68 67 66 67 67 66 66 66 66 66 66 65 64 64 62
4 3 5 10 9 28 13 25 20 22 21 22 25 23 27 22 35 39 40 42 43 44 43 44 44 45 45 48 48 49 50 50 51 52 54 57 60 60 60 61 62 64 64 64 65 67 67 69 70 70 70 71 71 72 72 71 71 71 72 72 72 72 73 72 72 72 72 72 72 72 72 72 72 72 72 72 72 72 71 70 70 69 67 66 65 66 66 65 65 65 65 65 64 65 64 63 62
9 3 2 6 18 11 21 34 30 29 24 15 33 28 29 35 26 38 40 41 43 44 43 43 44 45 46 48 48 48 50 51 52 53 53 55 59 60 60 61 62 64 64 65 65 66 67 68 70 70 71 71 71 72 72 72 71 71 72 72 72 73 73 72 72 72 72 72 72 71 72 72 72 72 72 72 72 71 71 70 70 68 66 65 64 65 65 65 65 65 64 64 63 63 64 64 63
9 3 5 10 15 14 14 12 20 19 19 21 18 16 21 25 23 38 37 39 41 43 44 43 44 45 45 46 48 48 49 52 53 53 54 55 57 60 60 60 61 63 64 65 65 66 67 68 69 70 70 71 71 71 72 72 72 71 71 72 73 73 73 73 72 72 72 72 71 71 71 72 72 72 72 72 71 71 71 72 70 67 65 65 64 65 64 64 65 64 64 64 64 64 63 64 64
5 4 9 3 11 7 20 21 10 12 14 17 20 19 21 24 27 34 34 37 38 41 43 43 44 44 45 45 46 48 48 51 53 53 54 55 56 58 60 60 61 63 65 65 65 66 67 68 69 70 70 70 71 71 72 72 72 72 72 72 72 73 73 73 73 72 72 71 71 71 71 71 71 72 72 72 71 71 70 71 70 67 65 65 64 65 64 64 64 64 64 63 64 64 63 62 63
13 8 6 7 12 7 11 16 22 18 14 19 15 23 22 29 25 31 27 36 37 38 41 42 43 44 44 45 45 47 48 49 52 53 54 55 56 57 59 60 61 62 64 65 65 66 66 67 69 69 70 71 71 71 72 72 72 72 72 72 73 73 73 73 73 73 72 71 71 71 71 71 71 72 72 72 71 71 70 70 69 66 64 64 65 65 64 63 63 63 64 63 64 64 63 62 63
13 11 8 16 11 17 7 19 10 20 23 20 18 15 22 31 34 28 27 30 36 37 39 41 42 43 44 44 45 47 48 49 51 53 54 56 56 57 59 60 61 63 65 65 65 65 66 67 68 69 70 70 71 71 71 72 72 72 73 72 73 73 73 73 73 73 72 72 71 71 71 71 72 71 71 71 71 71 70 70 68 66 64 64 65 65 64 63 63 62 63 63 63 64 63 63 63
13 12 11 9 4 13 5 7 12 17 19 21 18 14 29 33 34 32 28 28 32 36 38 39 41 41 43 44 45 47 48 49 51 52 53 55 56 58 59 61 62 63 64 65 65 65 66 67 68 69 69 70 70 71 71 72 72 72 72 73 73 73 74 74 73 73 72 72 72 71 71 71 71 71 71 71 71 70 70 69 67 66 65 64 64 65 65 64 63 62 63 63 63 63 63 63 64